Location: Asheville, NC
(35.6000°N, 82.5500°W)
Time: 06:15:59
(UTC-05:00)

Vanguard 2 - Pass Details

Date: 17 February 2018
Orbit: 553 x 2939 km, 32.9° (Epoch: 24 February)

Event Time Altitude Azimuth Distance (km) Brightness Sun altitude
Rises 21:14:44 0° 267° (W) 4,189 12.2 -37.2°
Reaches altitude 10° 21:18:11 10° 265° (W) 2,860 11.1 -37.9°
Enters shadow 21:21:32 28° 258° (WSW) 1,584 9.5 -38.5°
Maximum altitude 21:24:33 66° 184° (S) 812 - -39.1°
Drops below altitude 10° 21:28:53 10° 102° (ESE) 1,963 - -40.0°
Sets 21:30:52 0° 99° (E) 2,774 - -40.3°
